[ hide orbit diagram ]
For accurate long-term ephemerides, please instead use our Horizons system.This orbit viewer was implemented using two-body methods, and hence should not be used for determining accurate long-term trajectories (over several years or decades) or planetary encounter circumstances.
Orbital Elements at Epoch 2459000.5 (2020-May-31.0) TDB
Reference: JPL 20 (heliocentric ecliptic J2000)
Element | Value | Uncertainty (1-sigma) | Units |
e | .02348065323695548 | 3.7548e-08 | |
a | 2.515678103222378 | 1.4849e-08 | au |
q | 2.456608338024811 | 9.3202e-08 | au |
i | 10.33247855278867 | 4.6745e-06 | deg |
node | 121.8453189421143 | 3.4387e-05 | deg |
peri | 346.4526659275626 | 0.00034792 | deg |
M | 78.35903305284917 | 0.00034187 | deg |
tp | 2458683.274859266743 (2019-Jul-18.77485927) | 0.0013842 | TDB |
period | 1457.407604646546 3.99 | 1.2904e-05 3.533e-08 | d yr |
n | .2470139436985496 | 2.1871e-09 | deg/d |
Q | 2.574747868419944 | 1.5198e-08 | au |
|
| | Orbit Determination Parameters
Additional Information
|
[ hide covariance matrix ]
Orbital Elements at Epoch 2457188.5 (2015-Jun-15.0) TDB
Reference: JPL 20 (heliocentric ecliptic J2000)
Element | Value | Uncertainty (1-sigma) | Units |
e | .02298116017519743 | 4.0301e-08 | |
q | 2.45799431545704 | 1.0068e-07 | au |
tp | 2457237.690111401669 (2015-Aug-03.19011140) | 0.0014061 | TDB |
node | 121.8963638220466 | 3.4354e-05 | deg |
peri | 349.5186649093539 | 0.00035295 | deg |
i | 10.33657963928704 | 4.6766e-06 | deg |
|
| | Orbit Determination Parameters
Additional Information
|
Orbit Covariance (6×6)
|
|
e |
q |
tp |
node |
peri |
i |
e |
1.624207981593523E-15 |
-4.015659492547774E-15 |
2.322978452319254E-11 |
6.28526437761103E-14 |
5.789222818909211E-12 |
3.698558579233272E-15 |
q |
-4.015659492547774E-15 |
1.013640896648205E-14 |
-6.098229295542417E-11 |
-1.639802884169424E-13 |
-1.520520337198957E-11 |
-9.334071763437916E-15 |
tp |
2.322978452319254E-11 |
-6.098229295542417E-11 |
1.97699831820966E-6 |
4.876735319493564E-9 |
4.939807870804992E-7 |
4.89441271365142E-10 |
node |
6.28526437761103E-14 |
-1.639802884169424E-13 |
4.876735319493564E-9 |
1.180213677432376E-9 |
6.920623250226481E-11 |
5.203071261858894E-11 |
peri |
5.789222818909211E-12 |
-1.520520337198957E-11 |
4.939807870804992E-7 |
6.920623250226481E-11 |
1.24571906059622E-7 |
7.223788429578417E-11 |
i |
3.698558579233272E-15 |
-9.334071763437916E-15 |
4.89441271365142E-10 |
5.203071261858894E-11 |
7.223788429578417E-11 |
2.187076822449968E-11 |
|
Physical Parameter Table
Parameter |
Symbol |
Value |
Units |
Sigma |
Reference |
Notes |
absolute magnitude |
H |
15.82 |
|
n/a |
E2021B10 |
|
diameter |
diameter |
2.590 |
km |
0.358 |
urn:nasa:pds:neowise_diameters_albedos::2.0[mainbelt] (http://adsabs.harvard.edu/abs/2012ApJ...759L...8M) |
|
geometric albedo |
albedo |
0.152 |
|
0.049 |
urn:nasa:pds:neowise_diameters_albedos::2.0[mainbelt] (http://adsabs.harvard.edu/abs/2012ApJ...759L...8M) |
|
|
84447 Jeffkanipe | Discovered 2002 Oct. 6 by NEAT at Haleakala. |
While working on a publication for the fortieth anniversary of Arp's Atlas of Peculiar Galaxies, astronomical author and editor Jeff Kanipe (b. 1953) became interested in a spike extending out of the image of Arp 192 = NGC 3303. This led to its recognition in 2009 as a prediscovery trail of (84447) on 1964 Feb. 19. |
NOTE: some special characters may not display properly (any characters within {} are an attempt to place the proper accent above a character) |
Reference: 20091202/MPCPages.arc | Last Updated: 2010-04-12 |
|
[ show close-approach data ]
|